{"data":{"norad_id":47392,"epoch":"2026-05-25T02:08:49.394112Z","epoch_age_seconds":77574,"freshness":"FRESH","line1":"1 47392U 21005AV  26145.08946058  .00134176  00000+0  84908-3 0  9994","line2":"2 47392  53.0457   0.2321 0002898 102.6533 257.4810 15.75676025295654","mean_motion":15.75676025,"eccentricity":0.0002898,"inclination_deg":53.0457,"raan_deg":0.2321,"arg_perigee_deg":102.6533,"mean_anomaly_deg":257.481,"bstar":0.00084908,"rev_number":29565,"period_min":91.389345090784,"perigee_km":340.76046063536,"apogee_km":344.655862491,"semimajor_km":6720.8451615632,"source":"CELESTRAK","updated_at":"2026-05-25T13:38:16.553571Z"}}